Powrót do katalogu

SPAINSAT

AktywnyMilitariaGEO
NORAD 28945·PAYLOAD·🇪🇸 Spain

Wystrzelony Mar 11, 2006 z Guiana Space Centre

Loading…

TLE

ŚwieżeSource: Space-Track

Epoka: Sep 14, 2026, 02:28 UTC

1 28945U 06007A   26257.10311648 -.00000226  00000-0  00000-0 0  9998
2 28945   0.7871  84.9419 0004778  90.7874 184.2803  1.00272988 75105

Śledź SPAINSAT w czasie rzeczywistym z AllMySat

Download on the App Store